User: anonymous   Login
Location: Bronschhofen
(47.4788°N, 9.0353°E)
Time: 08:45:55
(UTC+00:00)
Language:

OE (NEXTSAT) - Orbit

View from above orbital plane
View from above orbital plane
View from above satellite
View from above satellite

Ground track
Ground track

The orbit data is extracted from the following two-line orbital elements,

1 30774U 07006C   22222.29893737  .00018868  00000-0  26601-3 0  9991
2 30774  45.9972  67.5310 0002091 279.2212  80.8461 15.56426180862245
Epoch (UTC): 10 August 2022 07:10:28
Eccentricity: 0.0002091
inclination: 45.9972°
perigee height: 396 km
apogee height: 399 km
right ascension of ascending node: 67.5310°
argument of perigee: 279.2212°
revolutions per day: 15.56426180
mean anomaly at epoch: 80.8461°
orbit number at epoch: 86224

The dashed part of the orbit path shows where the satellite is in the earth's shadow,  

DLR